Location: Newark
(52.3500°N, 175.9667°E)
Time: 22:37:52
(UTC+00:00)

Transit 4A - Pass Details

Date: 20 April 2021
Orbit: 871 x 974 km, 66.8° (Epoch: 16 May)

Event Time Altitude Azimuth Distance (km) Brightness Sun altitude
Rises 12:57:34 0° 233° (SW) 3,617 - -25.3°
Reaches altitude 10° 13:00:11 10° 237° (WSW) 2,661 - -25.2°
Exits shadow 13:03:54 36° 256° (WSW) 1,442 8.6 -25.1°
Maximum altitude 13:06:16 57° 316° (NW) 1,081 8.3 -25.0°
Drops below altitude 10° 13:12:15 10° 36° (NE) 2,601 11.2 -24.8°
Sets 13:14:47 0° 40° (NE) 3,530 12.0 -24.7°
